{"data":{"norad_id":44449,"intl_designator":"2019-045A","name":"YAOGAN-30 06A","alt_names":[],"object_type":"PAYLOAD","status":"ACTIVE","operator":null,"country":"PRC","launch_date":"2019-07-26","launch_site_code":"XICLF","launch_vehicle":null,"mission":null,"orbit_class":"UNKNOWN","rcs_meters":null,"size_class":null,"mass_kg":null,"dimensions":null,"purposes":[],"wikipedia_slug":null,"has_3d_model":false,"image_url":null,"decayed_at":null,"tle_current":{"epoch":"2026-05-25T04:25:45.864768Z","epoch_age_seconds":58396,"freshness":"FRESH","line1":"1 44449U 19045A   26145.18455862  .00002142  00000+0  16012-3 0  9992","line2":"2 44449  34.9925 110.2803 0002708  74.3052 285.7955 15.02519115373152","mean_motion":15.02519115,"eccentricity":0.0002708,"inclination_deg":34.9925,"raan_deg":110.2803,"arg_perigee_deg":74.3052,"mean_anomaly_deg":285.7955,"bstar":0.00016012,"rev_number":37315,"period_min":95.839046946168,"perigee_km":557.25289365287,"apogee_km":561.0101182757,"semimajor_km":6937.2685059643,"source":"CELESTRAK","updated_at":"2026-05-25T13:37:55.973148Z"}}}